Home > Weather > Wood Buffalo > Past weeks

Flag for Canada Past Weather in Wood Buffalo, Alberta, Canada — Yesterday and Last 2 Weeks

Now
54 °F

Sunny.


Feels Like: 51 °F
Forecast: 49 / 70 °F
Wind: 9 mph from Southeast

Location: Fort Mcmurray

Current Time: May 31, 2016 at 11:30:30 PM

Latest Report: May 31, 2016 at 11:00 PM


Visibility: 9 mi

Pressure: 29.99 "Hg

Humidity: 54%

Dew Point: 37 °F

Location of Wood BuffaloLocation

Past Weather in Wood Buffalo — Graph

°F

Wood Buffalo Temperature Yesterday

Maximum temperature yesterday: 61 °F (at 2:00 PM)
Minimum temperature yesterday: 52 °F (at 4:00 AM)
Average temperature yesterday: 56 °F

High & Low Weather Summary for the Past Weeks

 TemperatureHumidityPressure
High79 °F (May 17, 3:00 PM)100% (May 22, 1:53 AM)30.23 "Hg (May 22, 1:53 AM)
Low36 °F (May 24, 4:03 AM)21% (May 23, 1:00 PM)29.61 "Hg (May 22, 7:00 PM)
Average56 °F66%29.89 "Hg
* Reported May 16 10:00 PM — May 31 10:00 PM, Wood Buffalo, Weather by CustomWeather, © 2016

Note: Actual official high and low records may vary slightly from our data, if they occured in-between our weather recording intervals... More about our weather records

Advertising

Wood Buffalo Weather History for the Previous 24 Hours

Scroll right to see more
 ConditionsComfort  
Time TempWeatherWind HumidityBarometerVisibility
10:00 PM
Tue, May 31
59 °FPassing clouds.7 mph45%29.99 "Hg9 mi
9:00 PM64 °FScattered clouds.5 mph32%30.00 "Hg9 mi
8:00 PM66 °FPartly sunny.3 mph30%30.02 "Hg9 mi
7:00 PM68 °FScattered clouds.No wind30%30.03 "Hg9 mi
6:00 PM66 °FPassing clouds.3 mph32%30.06 "Hg9 mi
5:00 PM66 °FPassing clouds.5 mph35%30.08 "Hg9 mi
4:00 PM64 °FSunny.2 mph32%30.09 "Hg9 mi
3:00 PM66 °FSunny.8 mph37%30.11 "Hg9 mi
2:00 PM64 °FSunny.6 mph34%30.14 "Hg9 mi
1:00 PM63 °FScattered clouds.7 mph45%30.16 "Hg9 mi
12:00 PM59 °FScattered clouds.2 mph55%30.17 "Hg9 mi
11:00 AM57 °FScattered clouds.5 mph67%30.19 "Hg9 mi
10:00 AM57 °FPartly sunny.8 mph72%30.20 "Hg9 mi
9:00 AM55 °FBroken clouds.6 mph72%30.21 "Hg9 mi
8:00 AM52 °FPartly sunny.5 mph82%30.22 "Hg9 mi
7:00 AM48 °FPartly sunny.2 mph94%30.22 "Hg9 mi
6:00 AM46 °FFog.No wind100%30.23 "Hg3 mi
5:00 AM45 °FFog.5 mph100%30.22 "Hg1 mi
4:49 AM45 °FFog.5 mph100%30.22 "Hg1 mi
4:02 AM48 °FFog.3 mph87%30.22 "Hg5 mi
3:00 AM50 °FOvercast.6 mph88%30.22 "Hg9 mi
2:00 AM48 °FPassing clouds.7 mph94%30.21 "Hg9 mi
1:00 AM50 °FPartly cloudy.7 mph88%30.21 "Hg9 mi
12:00 AM52 °FPassing clouds.7 mph82%30.21 "Hg9 mi
11:00 PM
Mon, May 30
54 °FScattered clouds.7 mph77%30.21 "Hg9 mi
Weather by CustomWeather, © 2016

See weather overviewHow to use our weather pages